Temp
25 25 24 23 21 18 19 20 21 23 21 25 28 26 24 23 23 20 20 21 23 22 21 20 20 19 19 19 18 18 18 18 18 18 18 18 18 18 18 18 18 18 18 19 19 19 19 19 19
26 25 24 24 22 19 19 20 22 24 21 23 25 25 25 23 23 20 20 21 23 22 21 20 20 20 19 18 18 17 17 17 18 18 18 18 18 18 18 18 18 18 18 19 19 19 19 19 19
26 25 25 21 21 19 20 20 21 22 25 21 26 25 25 24 23 21 22 21 22 22 21 20 20 20 19 18 17 17 17 18 18 18 18 18 18 18 18 18 19 19 19 19 19 19 19 19 19
25 25 25 23 23 22 22 22 23 21 22 22 25 24 24 24 23 21 20 21 23 21 21 20 20 20 19 18 18 17 18 18 18 18 18 18 18 18 18 19 19 19 19 19 19 20 20 20 20
25 25 22 23 24 22 22 24 21 22 22 19 25 24 23 24 23 21 21 21 22 21 21 20 20 20 19 19 18 17 18 18 18 18 18 19 19 19 19 19 19 19 20 20 20 20 20 20 20
24 27 22 23 25 28 23 22 19 19 20 19 24 23 22 23 22 21 21 20 20 21 21 21 20 20 19 19 18 18 18 19 19 19 19 19 19 19 19 19 19 19 19 20 20 20 20 20 20
23 21 22 23 26 28 22 22 20 20 20 21 24 23 22 23 22 22 21 21 21 21 21 21 20 20 19 19 19 19 19 19 19 18 19 18 19 19 19 19 19 19 19 20 20 20 21 21 21
25 22 23 25 26 27 23 20 19 20 20 25 24 22 22 23 23 23 21 21 21 21 21 20 20 20 20 19 19 19 19 19 19 19 19 19 19 19 19 19 19 19 19 20 20 20 20 20 20
26 22 23 24 26 27 30 25 21 21 22 23 25 24 23 23 23 22 21 21 20 20 20 20 20 20 20 20 19 19 19 19 19 19 19 18 18 18 18 19 19 19 19 19 20 20 20 20 20
24 21 23 26 28 28 30 28 21 22 23 25 25 24 23 23 23 23 21 19 19 19 19 20 20 20 20 20 20 19 19 19 19 19 19 18 18 18 19 19 19 19 19 19 20 19 19 19 20
25 23 24 27 29 30 29 27 24 21 18 18 23 23 23 23 23 22 22 21 20 20 19 19 20 20 19 19 19 20 19 19 18 18 19 18 18 18 19 19 19 19 19 19 19 19 19 19 19
23 26 27 28 29 30 28 26 22 21 19 19 21 23 23 23 24 23 22 21 20 20 19 19 19 19 18 19 19 20 19 19 19 18 18 18 18 19 19 19 18 18 18 18 18 18 18 19 19
24 24 28 29 30 30 31 27 22 21 20 19 18 22 23 23 24 24 22 21 21 20 20 20 19 19 19 19 19 19 19 19 19 18 18 18 19 18 19 18 18 18 18 18 19 19 19 19 19
28 27 28 30 29 29 28 24 23 18 21 20 21 23 23 23 23 23 23 22 22 21 20 20 20 19 19 19 19 19 19 19 18 18 18 18 19 18 18 18 19 18 19 19 19 19 19 19 19
28 24 24 26 28 26 30 26 23 18 21 22 23 23 23 24 24 24 24 23 22 21 21 20 20 19 19 19 19 19 19 19 18 18 18 18 18 18 17 17 18 18 18 18 18 18 18 18 18
23 24 23 24 26 28 28 25 19 20 21 19 22 23 23 24 24 24 24 23 22 21 21 20 20 19 19 18 18 19 18 18 18 18 18 18 18 18 17 18 18 17 17 17 17 17 17 17 17
22 21 23 24 26 26 26 25 24 18 19 17 18 21 22 24 23 23 22 22 21 21 20 19 19 19 18 18 17 17 17 17 17 17 17 18 18 17 17 17 17 17 17 17 17 16 16 15 16
22 22 23 23 26 27 25 24 27 20 20 18 17 20 23 23 23 22 22 21 21 20 20 19 17 18 17 16 16 16 16 16 16 16 17 17 16 16 17 16 16 16 16 16 16 16 16 16 16
24 24 24 25 28 26 26 27 25 28 25 24 25 23 23 22 22 21 21 20 20 19 19 18 18 17 17 15 15 15 15 15 15 15 15 15 15 15 15 15 16 16 16 16 16 16 16 16 16
24 23 24 26 27 27 25 25 26 25 25 25 24 24 21 19 20 20 20 19 19 18 18 17 16 16 16 15 15 14 14 14 14 14 14 14 14 14 14 14 14 15 15 15 15 15 15 15 16
25 24 24 24 26 26 25 24 25 27 26 25 24 23 22 20 19 18 18 18 17 17 16 16 15 15 15 14 14 13 13 13 13 14 13 13 13 13 13 13 13 13 14 14 14 14 14 14 14
23 26 26 26 24 21 26 22 23 25 24 25 20 21 21 21 21 20 18 17 16 15 15 14 14 14 14 14 13 13 13 13 12 12 12 12 12 12 12 12 12 12 13 13 13 13 13 14 14
21 23 25 25 23 23 23 20 21 24 24 23 21 19 20 22 23 19 18 17 15 15 14 14 14 13 13 13 13 13 12 12 12 11 11 11 10 11 11 11 11 12 12 12 12 12 12 12 12
22 21 21 23 22 19 23 21 22 17 14 14 14 16 17 18 21 20 18 15 15 14 13 13 13 12 12 11 11 12 12 11 11 10 11 10 10 10 9 10 9 10 10 10 11 11 11 11 11
21 19 15 16 17 19 18 19 12 14 15 15 14 14 19 18 18 17 16 14 14 13 13 12 12 11 11 11 11 11 10 10 10 11 9 9 8 8 8 8 8 8 9 9 10 10 10 10 9
21 18 15 14 14 15 17 19 12 14 14 13 13 12 14 19 17 17 14 14 13 12 12 11 11 10 9 10 10 9 9 9 10 8 8 7 8 8 8 7 7 7 7 8 9 9 9 9 8
19 17 19 16 17 16 16 19 18 14 13 13 11 11 11 13 16 14 13 12 12 12 11 11 10 10 9 9 9 8 8 8 8 8 8 8 7 7 8 7 7 7 6 6 7 8 8 8 7
18 19 17 16 13 15 18 15 12 11 10 11 11 9 10 11 12 12 12 11 10 11 10 10 10 9 8 8 7 7 8 8 8 8 7 7 7 7 7 6 6 6 5 5 6 6 6 7 7
17 15 16 15 14 14 13 14 11 10 10 10 11 10 11 11 11 10 10 10 10 10 10 9 9 8 7 7 6 7 7 7 7 6 6 6 6 6 6 5 4 5 5 4 5 5 6 6 6
17 14 14 13 12 13 12 11 11 11 11 11 10 10 11 11 10 8 8 9 9 9 8 8 8 7 7 6 6 7 6 6 6 6 5 5 5 5 4 4 4 4 5 5 4 4 5 5 5
Height
1522 1523 1523 1523 1532 1534 1548 1545 1529 1519 1515 1507 1491 1493 1504 1510 1516 1536 1530 1533 1532 1534 1538 1542 1545 1548 1550 1553 1556 1559 1561 1563 1564 1566 1568 1570 1572 1573 1575 1576 1576 1577 1577 1578 1578 1579 1578 1578 1578
1521 1522 1521 1520 1531 1546 1544 1533 1523 1509 1514 1518 1495 1501 1508 1517 1516 1520 1527 1531 1533 1534 1538 1541 1545 1548 1551 1555 1557 1560 1562 1564 1566 1568 1570 1572 1574 1575 1577 1577 1578 1579 1579 1580 1580 1580 1580 1579 1579
1518 1520 1521 1518 1522 1541 1538 1524 1523 1501 1502 1519 1504 1503 1509 1516 1522 1522 1527 1531 1531 1535 1538 1541 1544 1548 1552 1555 1558 1561 1563 1566 1568 1570 1572 1574 1576 1577 1578 1579 1579 1580 1581 1581 1581 1581 1580 1580 1581
1516 1517 1516 1519 1521 1517 1516 1517 1513 1509 1515 1512 1502 1506 1513 1516 1518 1520 1528 1530 1532 1535 1539 1542 1545 1548 1552 1556 1558 1562 1564 1567 1570 1572 1573 1575 1577 1578 1579 1580 1581 1581 1582 1582 1582 1582 1582 1582 1582
1515 1515 1519 1517 1509 1508 1507 1508 1525 1522 1519 1507 1497 1510 1515 1520 1520 1522 1526 1527 1531 1535 1539 1543 1545 1548 1553 1556 1558 1562 1564 1567 1570 1572 1574 1576 1578 1579 1580 1581 1581 1581 1582 1583 1582 1582 1583 1583 1583
1513 1507 1521 1523 1502 1497 1504 1510 1518 1526 1508 1498 1497 1508 1518 1521 1520 1524 1526 1528 1532 1534 1538 1542 1545 1548 1552 1556 1558 1561 1564 1567 1570 1573 1575 1577 1578 1580 1581 1581 1581 1582 1582 1583 1583 1583 1583 1583 1583
1508 1511 1516 1510 1497 1496 1503 1500 1529 1523 1506 1497 1498 1505 1516 1524 1523 1524 1525 1530 1533 1537 1538 1541 1545 1549 1552 1555 1558 1561 1564 1567 1570 1573 1575 1577 1579 1580 1581 1581 1582 1582 1583 1584 1584 1583 1584 1584 1583
1504 1505 1510 1502 1495 1490 1491 1490 1490 1514 1506 1496 1496 1501 1510 1517 1523 1526 1525 1530 1534 1537 1539 1542 1545 1548 1552 1555 1559 1561 1564 1567 1569 1572 1575 1577 1579 1580 1581 1582 1582 1583 1583 1584 1585 1585 1585 1584 1584
1499 1507 1508 1500 1489 1483 1474 1476 1475 1492 1503 1483 1486 1486 1497 1511 1520 1523 1526 1530 1533 1536 1539 1542 1545 1548 1551 1555 1558 1561 1564 1567 1569 1572 1575 1577 1579 1579 1580 1582 1582 1583 1583 1584 1585 1585 1585 1585 1584
1495 1503 1496 1483 1478 1481 1476 1473 1491 1492 1490 1484 1479 1484 1491 1503 1512 1517 1522 1527 1530 1532 1537 1541 1544 1547 1550 1554 1558 1561 1563 1566 1569 1572 1574 1576 1578 1579 1580 1581 1582 1584 1584 1584 1585 1586 1586 1585 1583
1490 1494 1485 1477 1475 1476 1477 1481 1474 1468 1481 1491 1493 1493 1497 1500 1506 1511 1518 1525 1529 1532 1534 1538 1542 1545 1548 1553 1556 1559 1562 1565 1568 1570 1573 1575 1576 1577 1578 1580 1582 1583 1583 1584 1584 1584 1584 1584 1584
1489 1481 1479 1475 1473 1472 1472 1473 1468 1476 1489 1492 1491 1506 1506 1504 1502 1507 1513 1522 1527 1532 1534 1537 1541 1543 1546 1551 1554 1557 1560 1563 1566 1568 1571 1575 1576 1578 1579 1580 1581 1581 1581 1581 1581 1581 1582 1583 1584
1481 1476 1472 1470 1470 1469 1468 1465 1467 1479 1484 1486 1514 1518 1512 1508 1502 1507 1513 1519 1525 1531 1535 1535 1539 1544 1547 1549 1553 1555 1557 1560 1563 1567 1569 1570 1572 1575 1576 1578 1578 1578 1578 1579 1578 1579 1579 1580 1581
1474 1471 1468 1466 1466 1467 1468 1469 1464 1481 1478 1488 1498 1513 1513 1513 1507 1509 1511 1516 1520 1528 1532 1534 1537 1541 1544 1547 1551 1553 1556 1558 1560 1562 1564 1567 1569 1571 1572 1573 1574 1575 1575 1576 1575 1576 1576 1576 1577
1472 1474 1466 1464 1464 1464 1465 1467 1465 1471 1481 1481 1484 1498 1504 1503 1506 1510 1511 1513 1517 1524 1529 1531 1534 1538 1541 1545 1548 1550 1553 1554 1557 1559 1561 1564 1566 1569 1569 1569 1570 1572 1573 1572 1574 1574 1574 1573 1574
1477 1473 1483 1463 1461 1460 1465 1478 1471 1471 1473 1482 1483 1484 1493 1495 1502 1506 1511 1513 1515 1520 1525 1529 1532 1534 1538 1541 1544 1546 1548 1550 1553 1555 1558 1561 1563 1565 1564 1565 1568 1569 1567 1568 1570 1570 1570 1571 1570
1480 1494 1481 1468 1455 1458 1460 1469 1459 1471 1474 1476 1475 1470 1487 1496 1499 1504 1512 1516 1513 1519 1523 1525 1527 1530 1535 1539 1541 1544 1545 1547 1548 1550 1555 1557 1560 1561 1561 1562 1564 1565 1565 1567 1568 1568 1567 1566 1568
1493 1489 1481 1476 1459 1453 1461 1460 1453 1463 1465 1469 1477 1481 1488 1492 1495 1501 1507 1511 1512 1517 1521 1522 1522 1526 1532 1536 1539 1542 1543 1544 1545 1547 1552 1554 1557 1558 1558 1560 1561 1562 1563 1564 1565 1565 1563 1563 1564
1474 1475 1477 1461 1449 1454 1453 1449 1450 1448 1457 1462 1465 1471 1480 1489 1494 1497 1499 1506 1509 1514 1518 1519 1518 1521 1527 1530 1535 1538 1539 1541 1542 1545 1549 1552 1555 1555 1555 1556 1558 1559 1559 1560 1560 1560 1560 1560 1562
1469 1473 1469 1456 1447 1448 1451 1451 1446 1442 1445 1449 1457 1467 1476 1486 1496 1499 1497 1499 1506 1511 1511 1516 1518 1517 1524 1527 1531 1536 1536 1538 1540 1544 1546 1548 1551 1553 1553 1553 1554 1555 1555 1556 1556 1556 1556 1558 1559
1462 1467 1464 1462 1448 1444 1449 1455 1447 1438 1441 1447 1454 1464 1471 1475 1485 1493 1498 1504 1506 1506 1509 1510 1516 1518 1522 1526 1527 1531 1533 1536 1540 1542 1543 1544 1547 1549 1549 1550 1550 1550 1553 1553 1553 1554 1554 1555 1556
1468 1450 1450 1454 1461 1477 1446 1478 1453 1442 1441 1441 1447 1450 1454 1461 1468 1471 1483 1490 1496 1502 1509 1510 1516 1519 1519 1522 1523 1527 1530 1534 1538 1539 1543 1542 1544 1544 1546 1546 1547 1548 1550 1551 1551 1552 1552 1553 1555
1476 1456 1446 1448 1458 1459 1460 1477 1463 1442 1447 1448 1446 1442 1441 1443 1447 1455 1463 1473 1485 1495 1505 1506 1510 1515 1516 1517 1519 1525 1530 1531 1534 1536 1541 1541 1541 1542 1543 1545 1545 1547 1548 1549 1550 1550 1551 1552 1554
1468 1463 1452 1448 1456 1484 1465 1477 1470 1485 1490 1469 1461 1463 1445 1427 1431 1440 1459 1463 1473 1491 1497 1501 1505 1512 1517 1517 1518 1520 1523 1527 1531 1535 1538 1539 1540 1540 1542 1544 1545 1546 1547 1548 1549 1549 1550 1551 1552
1473 1480 1507 1501 1495 1491 1483 1486 1512 1491 1486 1477 1462 1454 1438 1427 1429 1434 1452 1460 1471 1486 1488 1492 1500 1509 1512 1515 1519 1521 1521 1525 1532 1534 1534 1537 1539 1540 1541 1543 1545 1546 1546 1547 1548 1549 1550 1551 1552
1482 1491 1523 1531 1526 1518 1491 1488 1496 1486 1477 1465 1458 1454 1421 1409 1428 1437 1451 1461 1472 1483 1486 1492 1498 1506 1510 1514 1516 1521 1523 1526 1530 1531 1533 1536 1539 1540 1542 1544 1545 1546 1547 1547 1548 1549 1549 1551 1552
1491 1499 1484 1504 1509 1511 1499 1473 1474 1481 1471 1474 1467 1464 1461 1455 1449 1445 1441 1453 1470 1473 1480 1491 1498 1504 1510 1514 1515 1518 1523 1525 1528 1530 1533 1536 1539 1540 1541 1543 1545 1547 1548 1549 1549 1550 1550 1551 1552
1490 1484 1499 1497 1521 1508 1484 1493 1505 1498 1494 1484 1480 1480 1476 1475 1473 1465 1446 1457 1465 1479 1487 1493 1497 1503 1507 1513 1515 1519 1523 1526 1529 1529 1532 1535 1538 1540 1540 1542 1545 1547 1548 1548 1550 1551 1552 1552 1553
1494 1498 1494 1493 1497 1512 1516 1506 1506 1504 1500 1491 1488 1484 1485 1489 1490 1491 1472 1471 1481 1493 1494 1494 1499 1506 1513 1516 1516 1517 1519 1525 1528 1528 1531 1534 1537 1539 1540 1542 1545 1547 1548 1550 1552 1552 1553 1553 1554
1499 1509 1506 1514 1517 1507 1508 1512 1508 1504 1503 1500 1495 1488 1490 1496 1498 1501 1486 1491 1493 1492 1498 1502 1504 1507 1515 1518 1515 1522 1523 1525 1529 1532 1532 1534 1536 1537 1539 1542 1545 1547 1549 1551 1552 1553 1554 1554 1554
Wind_Speed
16 14 10 3 2 5 2 5 6 16 13 18 21 17 11 9 5 6 27 22 23 26 25 23 22 22 22 22 21 21 22 23 23 23 23 22 20 19 17 17 17 15 15 16 16 15 15 16 17
15 13 12 6 2 3 3 1 11 16 24 19 33 26 11 5 21 30 28 22 21 26 26 25 23 23 23 22 22 21 21 22 22 22 21 19 17 16 15 14 14 13 14 13 14 14 13 14 15
15 15 4 4 4 5 4 7 8 25 29 13 2 18 9 13 28 21 24 21 27 27 26 26 25 25 24 23 22 21 21 21 21 20 19 17 15 14 12 11 12 11 12 12 12 12 12 14 15
10 5 6 3 12 5 7 12 18 39 24 20 21 11 16 22 26 28 28 21 27 27 27 26 25 25 25 24 22 20 20 20 19 18 17 14 12 10 10 9 10 10 10 10 10 10 11 12 13
9 6 3 5 13 9 9 5 19 11 21 25 17 12 8 23 26 30 22 19 25 28 27 27 26 26 25 24 22 20 19 18 17 16 14 12 10 8 8 9 9 9 9 9 9 8 8 9 10
6 5 3 8 17 5 4 14 16 9 24 31 21 22 9 33 34 28 24 23 19 26 27 27 26 26 25 23 21 20 18 17 15 13 12 10 8 8 8 8 8 8 9 9 8 7 8 9 10
10 2 7 11 18 7 6 31 18 36 32 17 31 11 23 33 33 25 34 25 19 21 27 26 26 25 24 22 20 18 16 15 14 12 11 9 8 8 7 7 8 9 9 10 10 10 10 11 10
22 3 9 12 17 14 20 18 29 40 27 20 26 9 25 38 35 28 35 30 20 18 25 26 25 24 23 21 18 16 15 14 13 11 10 9 9 8 8 8 8 9 9 9 10 11 9 9 10
21 5 11 13 19 12 11 7 37 48 33 26 26 37 44 42 38 38 32 23 18 18 25 25 24 22 21 19 17 15 14 13 12 10 11 11 8 6 6 9 9 8 8 9 10 8 7 6 6
6 4 10 14 18 13 17 12 25 6 6 7 26 33 49 45 42 41 34 31 25 20 21 22 24 22 20 16 15 13 12 11 10 10 12 9 4 2 4 5 7 7 8 6 8 9 6 3 4
16 11 11 24 30 25 19 7 5 25 5 13 15 45 47 45 41 41 36 35 29 20 23 18 21 19 16 15 12 13 12 11 12 11 13 11 6 2 2 6 6 2 3 5 4 7 1 2 6
8 21 24 28 34 27 13 7 4 7 14 23 14 36 37 41 40 38 39 38 28 28 31 24 24 21 20 13 7 13 13 10 7 2 7 10 10 8 4 5 6 5 7 4 2 5 5 8 11
7 10 28 31 27 28 26 5 7 15 26 44 3 17 31 32 32 34 38 34 26 32 29 29 30 30 23 18 13 11 9 9 8 12 11 16 17 9 11 9 10 10 12 13 14 15 16 12 7
21 17 20 27 27 28 10 6 13 9 33 32 26 22 26 27 30 31 35 30 29 32 32 31 26 33 22 22 19 16 18 19 20 19 17 14 19 17 17 18 17 18 19 19 18 15 14 12 10
23 10 11 10 17 13 22 10 7 33 26 27 33 31 27 29 30 35 35 34 36 33 34 32 29 32 27 27 26 23 24 22 20 21 22 18 22 19 17 21 20 17 17 16 14 13 13 14 12
9 6 6 9 10 18 11 8 14 40 36 25 16 24 32 34 33 35 37 40 37 38 33 28 27 27 32 24 28 27 24 24 24 25 23 20 19 19 19 21 18 17 18 17 15 13 13 15 15
6 7 10 10 11 9 8 9 12 39 33 29 34 42 36 38 35 36 34 34 32 34 35 28 25 26 30 25 26 26 25 22 25 27 23 19 18 17 19 19 16 16 18 17 16 16 14 14 14
8 7 9 11 8 13 13 10 10 41 35 37 40 40 38 37 38 35 34 35 33 34 36 35 28 27 30 25 27 25 26 26 26 23 18 16 14 15 18 17 15 16 17 17 17 18 18 12 8
14 13 13 15 13 5 15 17 12 20 31 32 35 37 38 41 36 35 34 34 37 36 36 38 34 31 33 30 29 27 27 27 25 22 18 15 13 13 16 15 14 15 16 17 15 12 13 10 4
16 16 16 9 10 5 10 8 11 8 22 40 39 33 33 38 28 28 34 37 38 38 38 39 34 31 29 31 27 23 24 25 24 19 16 16 14 13 15 15 15 17 16 13 10 9 11 7 6
8 6 6 8 13 7 7 8 6 5 19 31 35 32 31 38 35 33 33 35 37 37 36 38 33 27 27 24 27 25 25 24 18 16 14 11 12 12 14 14 13 15 12 9 9 10 12 7 6
5 10 10 10 7 9 3 9 8 6 9 15 28 47 50 49 35 42 44 41 39 35 30 33 30 27 26 27 26 26 27 24 18 17 11 11 11 11 10 10 11 11 10 8 9 11 11 10 9
14 26 10 11 8 3 9 3 8 8 9 9 16 39 51 56 46 54 50 47 41 37 31 30 29 25 27 24 25 23 22 19 17 14 8 8 7 8 8 8 9 9 8 8 10 12 12 10 8
10 25 12 6 1 4 4 7 6 8 12 25 32 28 36 57 57 58 47 43 44 36 31 24 25 24 23 19 19 18 18 18 19 12 10 8 6 6 5 6 7 8 6 7 8 11 11 9 10
15 14 6 6 5 3 20 9 5 15 17 18 25 45 28 60 54 51 45 45 37 34 35 28 23 23 22 18 19 18 16 18 14 11 8 5 4 3 5 6 7 6 5 6 7 9 10 12 11
15 6 2 5 6 11 17 6 3 14 27 39 46 52 69 57 44 39 45 46 44 39 33 28 25 21 20 20 20 19 19 15 11 13 13 14 6 3 1 5 5 7 7 7 7 8 10 12 11
8 5 8 14 15 4 7 9 5 23 24 33 39 47 52 26 25 42 49 52 40 39 35 29 25 21 19 18 17 18 16 15 19 14 15 14 11 6 5 5 6 7 9 6 5 6 9 10 13
8 9 7 1 5 4 3 4 5 14 16 18 23 31 43 43 11 30 41 37 39 32 29 25 19 20 20 19 20 19 19 18 18 16 13 11 9 5 4 7 7 9 11 7 6 7 9 6 9
10 7 6 2 2 2 3 2 3 4 8 10 12 23 33 38 20 7 27 39 35 30 24 23 22 22 19 23 19 20 20 20 17 16 13 11 8 5 6 7 7 7 10 9 5 6 6 7 6
11 10 11 4 8 3 4 2 4 3 3 11 14 11 16 24 12 13 25 30 29 30 31 31 29 28 25 24 17 12 12 14 15 16 13 10 10 10 10 9 8 7 9 11 8 5 5 6 5
Wind_Direction
303 317 320 272 31 70 142 240 254 278 321 15 85 84 99 107 142 164 153 167 148 147 146 146 143 138 132 128 126 124 121 120 120 121 120 118 113 109 104 102 102 101 94 87 84 80 77 75 79
294 310 301 270 169 93 246 186 269 274 270 317 89 94 80 67 115 134 144 160 152 149 148 148 145 140 134 132 131 126 124 125 125 126 125 122 115 108 104 103 102 97 91 84 81 77 71 70 77
293 299 248 185 206 170 176 159 261 282 276 279 27 90 83 120 131 138 165 154 155 149 151 150 146 141 137 137 134 131 132 132 132 131 128 125 119 113 106 101 98 94 87 80 76 70 66 69 83
295 282 242 206 258 182 165 159 162 242 295 301 129 84 110 141 142 149 152 154 156 149 152 151 148 143 142 143 137 136 137 138 136 135 133 129 122 114 104 94 88 85 82 77 74 70 67 76 79
286 257 256 274 256 149 202 116 199 255 287 284 119 119 99 147 152 150 150 171 157 151 154 154 152 148 148 147 143 143 143 144 142 142 138 133 123 109 96 90 81 73 68 70 70 69 70 71 75
255 231 256 273 275 167 51 103 130 200 250 267 109 123 114 150 149 145 150 163 160 158 159 158 155 152 154 153 150 150 149 149 148 146 140 133 120 106 97 86 79 71 66 65 68 72 75 74 72
232 280 258 270 274 253 153 114 173 201 233 235 134 127 143 157 153 149 163 169 166 164 163 161 158 157 158 158 157 155 153 148 147 145 139 129 114 98 83 78 69 63 62 68 70 72 80 80 73
243 210 264 267 275 288 163 134 199 192 238 169 151 148 159 160 157 156 167 163 169 173 168 165 162 162 163 164 162 156 152 151 149 146 134 118 99 92 58 76 64 56 54 59 67 71 82 80 62
267 258 257 254 265 287 232 147 209 194 208 173 189 160 156 157 158 146 149 155 161 162 170 166 165 165 166 167 167 165 160 156 155 148 133 112 100 74 85 66 60 55 53 65 73 77 80 41 14
213 246 246 260 271 278 297 104 155 140 250 182 141 156 155 158 161 161 154 156 158 163 168 167 168 168 166 169 172 173 166 160 158 152 147 127 117 136 48 18 64 56 53 66 60 48 4 347 10
246 252 264 269 277 294 315 322 136 129 202 16 148 144 155 160 163 164 168 166 168 179 165 169 159 158 156 157 172 180 169 156 157 168 163 163 141 210 286 318 313 65 22 61 9 358 332 272 282
221 250 263 267 271 286 287 157 296 189 116 76 180 146 155 165 167 167 169 170 172 164 172 174 168 160 180 169 150 173 156 166 186 182 226 192 170 176 228 222 165 124 127 149 161 247 267 269 280
227 245 258 268 284 270 282 287 129 100 113 110 40 165 168 175 170 168 170 173 175 174 178 177 179 166 176 193 169 151 159 178 183 203 194 191 173 185 197 192 181 202 210 214 229 245 249 262 252
275 267 259 270 288 298 273 155 117 140 135 144 159 182 180 186 176 181 173 180 178 175 181 185 187 170 175 177 172 178 168 181 195 202 212 216 199 193 206 214 222 233 236 241 247 244 251 261 252
286 299 293 285 288 274 293 312 144 151 151 155 161 178 195 195 190 189 191 185 178 178 187 186 177 181 175 172 183 182 182 191 200 209 220 225 217 209 217 229 234 237 245 245 248 254 263 266 258
308 301 255 260 267 284 281 261 141 159 159 159 170 189 204 195 202 199 181 170 169 174 177 185 189 192 187 184 182 192 194 202 213 220 225 234 225 213 223 228 233 240 246 247 248 257 262 270 265
296 264 256 269 237 250 233 243 119 171 174 164 182 186 209 200 172 169 170 172 173 180 182 182 190 190 189 192 191 190 198 202 218 225 227 226 216 218 224 230 235 244 256 267 277 278 278 271 275
270 299 308 292 287 249 261 224 213 172 169 174 194 193 192 181 169 174 179 182 183 187 181 184 187 190 183 186 194 190 196 205 219 228 224 220 213 213 228 233 241 255 268 275 283 285 277 265 274
243 266 268 271 281 338 303 221 205 215 171 170 182 177 188 169 166 179 187 192 192 192 189 192 194 192 195 189 190 193 201 210 216 224 228 235 225 213 234 244 251 261 267 276 277 266 253 252 256
233 245 258 273 295 305 299 299 252 205 173 178 183 183 157 159 175 179 189 194 201 201 196 197 199 198 195 193 194 198 205 212 220 224 237 233 228 225 235 246 256 261 266 270 258 224 222 216 192
282 273 289 284 296 296 304 302 285 249 187 179 183 176 173 163 166 183 192 200 202 204 197 196 200 193 188 188 191 187 200 211 219 230 237 234 228 228 234 246 250 259 258 248 222 200 204 190 159
263 262 274 279 274 271 192 281 297 300 190 187 159 178 183 185 204 198 196 199 201 203 194 195 197 199 197 194 192 200 206 208 217 234 229 242 242 235 231 229 232 235 243 234 206 193 201 198 176
0 346 264 249 266 293 315 348 290 317 305 230 180 183 187 202 204 195 197 202 195 194 200 197 203 196 185 183 197 199 196 207 223 223 232 247 226 214 215 212 217 215 218 209 196 187 192 191 190
349 2 340 314 188 286 264 319 288 27 3 14 5 336 202 190 193 198 196 180 184 191 194 188 185 183 190 181 179 192 209 202 196 207 238 225 202 212 205 202 207 211 201 182 179 182 185 177 176
8 30 350 347 348 259 9 342 75 335 14 9 7 354 335 201 191 183 176 172 169 177 179 174 172 173 185 187 170 179 189 185 201 230 192 168 191 187 193 185 179 190 172 162 163 158 156 164 162
332 88 313 315 338 299 312 253 315 356 7 12 16 7 8 193 189 166 161 160 164 165 163 166 171 159 169 176 171 166 167 172 184 151 174 179 210 217 258 213 184 167 152 155 153 146 139 142 155
312 308 226 195 255 318 267 278 327 348 1 8 13 14 12 28 141 154 146 148 152 159 163 167 166 164 164 170 170 172 168 155 157 159 176 183 187 217 265 192 174 152 132 120 119 139 140 141 141
347 304 336 117 198 250 278 66 334 350 339 359 11 16 12 14 55 145 137 142 153 151 152 157 169 161 157 152 156 156 154 159 173 171 170 176 194 221 196 157 148 141 144 142 111 123 136 144 134
341 9 354 334 95 299 293 253 247 326 345 356 8 19 18 12 13 335 122 136 139 143 144 143 153 150 147 157 159 160 161 160 166 163 159 162 174 183 151 135 135 135 147 138 120 119 125 130 120
22 27 30 46 321 276 187 304 35 336 322 357 7 26 30 22 95 89 101 123 133 130 141 144 146 150 156 160 155 154 159 170 177 177 173 178 183 161 148 135 136 144 146 150 139 138 113 98 90